星链-33629 (STARLINK-33629)

导读 | 豆包AI

STARLINK-33629是美国SpaceX星链项目的低轨通信卫星,属于Starlink V1.0卫星平台,2025年3月26日于美国发射,目前在轨运行。该卫星运行于近地轨道,轨道高度约475公里,倾角53.159°,周期约94分钟。作为星链星座的组成部分,它旨在为全球,尤其偏远地区提供高速低延迟宽带互联网服务,助力缩小数字鸿沟,进一步完善全球卫星互联网基础设施覆盖,提升星座整体通信能力与网络稳定性。

基本信息
目录编号:
63388
目录名称:
STARLINK-33629
国际标识:
2025-063AB
轨道中心:
EARTH
卫星名称:
星链-33629
卫星全名:
星链-33629 (STARLINK-33629)
卫星状态:
在轨 (已飞行399 天)
发射日期:
2025-03-26 UTC
国别 :
美国 (US)
星等 :
--
轨道信息
数据来源 国际轨道数据
星历时间: 2026-04-29T21:43:35+0800
6小时前
查看轨道信息
半长轴: 6853.365km
偏心率: 0.0001011
轨道倾角: 53.157°
近地点辐角 71.230°
升交点赤经 173.709°
平近点角 288.881°
近地点: 474.535km
远地点: 475.921km
周期: 94.106分钟
每日圈数: 15.301957
详细信息
固有亮度:
5
最大亮度:
2.5
卫星平台:
Starlink V1.0
覆盖范围:
全球
运营商:
太空探索技术公司
运营商所在国:
美国
制造商(研发单位):
太空探索技术公司
制造商所在国:
美国
使用方式:
暂无
卫星简介
Starlink 计划是 SpaceX 推出的全球卫星互联网项目,通过发射低轨道卫星,为全球尤其是偏远地区提供高速、低延迟的互联网服务。自 2019 年起,Starlink 已部署数千颗卫星,旨在缩小全球数字鸿沟,推动互联网普及。该项目还为军事、航空等行业提供通信支持,带来广泛经济效益。
2D轨道图
3D轨道图
轨道高度分析图
轨道倾角分析图
轨道综合分析图
查看轨道综合分析图